Regional Weather Roundup
Issued by NWS

Home | Current Version | Previous Version | Graphics & Text | Print | Product List | Glossary On
Versions: 1 2 3 4 5 6 7 8 9 10 11 12 13 14 15 16 17 18 19 20 21 22 23 24 25 26 27 28 29 30 31 32 33 34 35 36 37 38 39 40 41 42 43 44 45 46 47 48 49 50
000
ASUS45 KBOU 011707
RWRCO

WEATHER ROUNDUP FOR COLORADO
NATIONAL WEATHER SERVICE DENVER/BOULDER CO
1000 AM MST SUN MAR 01 2015

NOTE: "FAIR" INDICATES FEW OR NO CLOUDS BELOW 12000 FEET WITH NO
SIGNIFICANT WEATHER AND/OR OBSTRUCTIONS TO VISIBILITY.

COZ001>005-013-030-031-011800-
...NORTHWEST COLORADO...

CITY           SKY/WX    TMP DP  RH WIND       PRES   REMARKS
CRAIG          CLOUDY    23  18  81 CALM      30.15S
HAYDEN         PTSUNNY   19  16  86 CALM      30.13R
MEEKER         LGT SNOW  25  23  92 SW3       30.11R FOG
MOUNT WERNER   NOT AVBL
STEAMBOAT SPGS CLOUDY    24  19  80 CALM      30.11S
WALDEN         SUNNY     10   5  79 CALM      30.07S
$$

COZ006>008-011-011800-
...WEST CENTRAL VALLEYS...

CITY           SKY/WX    TMP DP  RH WIND       PRES   REMARKS
GRAND JUNCTION CLOUDY    39  32  76 E6        30.09R
MONTROSE       CLOUDY    37  30  75 W5        30.11R
EAGLE          CLOUDY    36  30  80 CALM      30.10S
RIFLE          CLOUDY    36  28  73 CALM      30.10R
DELTA          CLOUDY    39  33  79 NE5       30.10F
NUCLA          CLOUDY    36  32  87 CALM      30.13S
$$

COZ017>023-064>068-011800-
...SOUTHWEST COLORADO...

CITY           SKY/WX    TMP DP  RH WIND       PRES   REMARKS
DURANGO        LGT SNOW  33  32  96 E5        30.12R VSB 1   WCI  29
CORTEZ         LGT SNOW  36  34  92 CALM      30.11R FOG
PAGOSA SPRINGS LGT SNOW  34  32  94 CALM      30.12R VSB 1
TELLURIDE      CLOUDY    28  24  86 CALM      30.11R
WOLF CREEK PAS LGT SNOW  19  19 100 SW9       30.13S WCI   9
$$

COZ009-010-012-014-032>034-037-058>063-011800-
...CENTRAL COLORADO...

CITY           SKY/WX    TMP DP  RH WIND       PRES   REMARKS
ASPEN          CLOUDY    30  23  75 NW5       30.06R WCI  25
BUENA VISTA    CLOUDY    29  20  69 CALM      30.10R
COPPER MTN     FLURRIES  21   9  58 SW10G17   30.06R WCI  10
BERTHOUD PASS  LGT SNOW  10   5  79 W13G20    30.05R WCI  -5
COTTONWOOD PAS CLOUDY    30  21  69 CALM      30.08R
GUNNISON       PTSUNNY   21  18  86 CALM      30.15F
KREMMLING      CLOUDY    30  23  74 CALM      30.11R
LEADVILLE      CLOUDY    20  15  81 S5        30.06R WCI  13
SALIDA         PTSUNNY   38  21  49 SW9       30.17S
SUNLIGHT       FLURRIES  23  21  93 CALM        N/A
WILKERSON PASS PTSUNNY   21  18  86 SW7       30.09R WCI  13
$$

COZ069>075-011800-
...SAN LUIS VALLEY/SANGRE DE CRISTO MOUNTAINS...

CITY           SKY/WX    TMP DP  RH WIND       PRES   REMARKS
ALAMOSA        CLOUDY    30  23  75 N3        30.13S
LA VETA PASS   PTSUNNY   32  27  80 S8G17     30.12R WCI  25
SAGUACHE       PTSUNNY   30  21  69 W3        30.14S
$$

COZ035-036-038>040-011800-
...NORTHERN COLORADO FRONT RANGE...

CITY           SKY/WX    TMP DP  RH WIND       PRES   REMARKS
DENVER INTL AP PTSUNNY   21  17  84 CALM      30.21R FOG
DMNS CITY PARK   N/A     24  14  64 N7G13     30.21S WCI  16
AURORA         PTSUNNY   20  15  82 N6        30.20R FOG     WCI  12
FRONT RANGE AP MOSUNNY   21  18  86 CALM      30.20S FOG
ERIE MUNI ARPT CLOUDY    24  17  77 N5        30.23R WCI  18
BOULDER MUN AP FLURRIES  25  19  80 NE5       30.22R WCI  19
CENTENNIAL     MOSUNNY   22  14  71 CALM      30.18R
BROOMFIELD     CLOUDY    23  16  74 CALM      30.20R
FORT COLLINS   PTSUNNY   23  16  74 NE5       30.25R WCI  17
LONGMONT       FLURRIES  29  20  69 N3        30.25R
$$

COZ041-046-047-076>085-087-088-011800-
...PIKES PEAK/PALMER DIVIDE AND SOUTHERN FOOTHILLS...

CITY           SKY/WX    TMP DP  RH WIND       PRES   REMARKS
COLO. SPRINGS  MOSUNNY   20  13  74 CALM      30.16R FOG
A. F. ACADEMY  SUNNY     21  12  68 NW14      30.13R WCI   8
ELLICOTT       NOT AVBL
FALCON         PTSUNNY   24  14  66 S3        30.13R
FORT CARSON    SUNNY     22  13  70 SE5       30.15R WCI  15
LIMON          CLOUDY    20  14  77 N12       30.21R WCI   8
MONUMENT HILL  MOSUNNY   19  14  79 NW8       30.12R HAZE    WCI   9
TRINIDAD       CLOUDY    19  16  88 NW3       30.18R FOG
$$

COZ042>045-048>051-090-091-011800-
...NORTHEAST COLORADO...

CITY           SKY/WX    TMP DP  RH WIND       PRES   REMARKS
GREELEY ARPT   MOSUNNY   25  16  68 NE3       30.24R
AKRON          MOSUNNY   24  14  65 N8        30.24R WCI  15
BURLINGTON     PTSUNNY   24  15  68 N12       30.25R WCI  13
WRAY           MOSUNNY   29  15  55 N9        30.29R WCI  21
STERLING       PTSUNNY   28  19  69 NE7       30.27R WCI  21
HOLYOKE        NOT AVBL
FORT MORGAN    CLOUDY    25  16  68 NE5       30.26R WCI  19
$$

COZ086-089-092>099-011800-
...SOUTHEAST COLORADO...

CITY           SKY/WX    TMP DP  RH WIND       PRES   REMARKS
PUEBLO         SUNNY     23  15  71 CALM      30.23R
LA JUNTA       PTSUNNY   27  16  63 VRB3      30.26R
LAMAR          CLOUDY    26  18  71 NW3       30.26R
SPRINGFIELD      N/A     24  17  74 N10       30.23R WCI  14
$$


USA.gov is the U.S. government's official web portal to all federal, state and local government web resources and services.